Flag for Switzerland Weather past 2 weeks in Grenchen, Solothurn, Switzerland

Now
36 °F

Chilly.


Feels Like: 36 °F
Forecast: 30 / 50 °F
Wind: 1 mph from North

Location: Grenchen

Current Time: Dec 22, 2014 at 12:46:54 PM

Latest Report: Dec 22, 2014 at 12:00 PM


Visibility: N/A

Pressure: 30.53 "Hg

Humidity: 100%

Dew point: 36 °F

Location of GrenchenLocation

Historic Weather in Grenchen — Graph

°F

Grenchen temperature yesterday

Maximum temperature yesterday: 45 °F (at 3:00 PM)
Minimum temperature yesterday: 31 °F (at 11:00 PM)
Average temperature yesterday: 38 °F

Past Weeks' High & Low Weather Summary

 TemperatureHumidityPressure
High53 °F (Dec 19, 1:00 PM)100% (Dec 10, 2:00 AM)30.64 "Hg (Dec 10, 2:00 AM)
Low25 °F (Dec 22, 7:00 AM)58% (Dec 20, 8:00 PM)29.91 "Hg (Dec 12, 4:00 PM)
Average40 °F90%30.22 "Hg
* Reported Dec 7 11:00 AM — Dec 22 11:00 AM, Grenchen, Weather by CustomWeather, © 2014

Note: Actual official high and low records may vary slightly from our data, if they occured in-between our weather recording intervals... More about our weather records

Advertising

Grenchen weather history for previous 24 hours

 ConditionsComfort  
Time TempWeatherWind HumidityBarometerVisibility
11:00 AM
Dec 22
32 °FChilly.2 mph99%30.57 "HgN/A
10:00 AM28 °FChilly.1 mph99%30.57 "HgN/A
9:00 AM26 °FChilly.1 mph99%30.57 "HgN/A
8:00 AM26 °FChilly.2 mph99%30.57 "HgN/A
7:00 AM25 °FChilly.1 mph99%30.57 "HgN/A
6:00 AM26 °FChilly.1 mph100%30.56 "HgN/A
5:00 AM27 °FChilly.1 mph99%30.56 "HgN/A
4:00 AM28 °FChilly.2 mph99%30.58 "HgN/A
3:00 AM28 °FChilly.No wind99%30.60 "HgN/A
2:00 AM29 °FChilly.1 mph99%30.59 "HgN/A
1:00 AM29 °FChilly.1 mph99%30.60 "HgN/A
12:00 AM30 °FChilly.2 mph100%30.61 "HgN/A
11:00 PM
Dec 21
31 °FChilly.No wind99%30.62 "HgN/A
9:00 PM31 °FChilly.1 mph97%30.63 "HgN/A
8:00 PM33 °FChilly.2 mph95%30.62 "HgN/A
7:00 PM35 °FChilly.1 mph90%30.61 "HgN/A
6:00 PM39 °FChilly.5 mph81%30.59 "HgN/A
5:00 PM41 °FQuite cool.1 mph78%30.57 "HgN/A
4:00 PM42 °FQuite cool.6 mph76%30.57 "HgN/A
3:00 PM45 °FQuite cool.5 mph68%30.57 "HgN/A
2:00 PM44 °FQuite cool.2 mph69%30.58 "HgN/A
1:00 PM43 °FQuite cool.2 mph71%30.60 "HgN/A
12:00 PM41 °FQuite cool.No wind76%30.60 "HgN/A
Weather by CustomWeather, © 2014

See weather overviewHow to use our weather pages